This demonstration page uses our WeatherBlox Daily Observations layout. Learn more.

Hourly Observations for November 17, 2019

Temp ( °F °C ) Dew Point ( °F °C ) Humidity (%) Winds ( mph kmh ) Pressure ( in mb ) Visibility ( mi km ) Precip ( " mm )
12:15 am 00:15 Cloudy 47 8.1 36 2.1 66 66 NNW 13 20 30.12 1020 10 16.09344 0 0
12:35 am 00:35 Partly Cloudy 45 7 35 1.8 70 70 NNW 10 17 30.15 1021 10 16.09344 0 0
12:55 am 00:55 Clear 42 5.6 34 1.3 74 74 NW 9 15 30.15 1021 10 16.09344 0 0
1:15 am 01:15 Clear 41 5.2 34 1.3 76 76 NW 12 19 30.15 1021 10 16.09344 0 0
1:35 am 01:35 Clear 40 4.3 34 1 79 79 NW 9 15 30.18 1022 10 16.09344 0 0
1:55 am 01:55 Clear 38 3.5 33 0.8 83 83 NW 9 15 30.18 1022 10 16.09344 0 0
2:15 am 02:15 Partly Cloudy 37 2.8 33 0.4 84 84 NW 9 15 30.18 1022 10 16.09344 0 0
2:35 am 02:35 Clear 37 2.5 33 0.4 86 86 NW 8 13 30.18 1022 10 16.09344 0 0
2:55 am 02:55 Clear 37 2.9 33 0.7 86 86 WNW 12 19 30.18 1022 10 16.09344 0 0
3:15 am 03:15 Clear 38 3.2 34 1 86 86 WNW 12 19 30.18 1022 10 16.09344 0 0
3:35 am 03:35 Clear 37 3 33 0.7 85 85 NW 14 22 30.18 1022 10 16.09344 0 0
3:55 am 03:55 Clear 36 2.4 33 0.3 86 86 WNW 12 19 30.18 1022 10 16.09344 0 0
4:15 am 04:15 Clear 35 1.5 32 0 90 90 NW 10 17 30.21 1023 10 16.09344 0 0
4:35 am 04:35 Clear 34 1.1 31 -0.3 91 91 NW 10 17 30.21 1023 10 16.09344 0 0
4:55 am 04:55 Clear 34 0.9 31 -0.5 90 90 WNW 9 15 30.21 1023 10 16.09344 0 0
5:15 am 05:15 Clear 32 0 30 -1.1 92 92 WNW 12 19 30.21 1023 10 16.09344 0 0
5:35 am 05:35 Clear 32 -0.1 30 -1.3 92 92 WNW 10 17 30.21 1023 10 16.09344 0 0
5:55 am 05:55 Clear 32 0 30 -1.3 91 91 NW 10 17 30.18 1022 10 16.09344 0 0
6:15 am 06:15 Clear 32 0 30 -1.1 92 92 NW 9 15 30.18 1022 10 16.09344 0 0
6:35 am 06:35 Clear 32 -0.2 30 -1.3 92 92 NW 9 15 30.18 1022 10 16.09344 0 0
6:55 am 06:55 Clear 31 -0.5 29 -1.6 92 92 NW 10 17 30.18 1022 10 16.09344 0 0
7:15 am 07:15 Clear 30 -1 28 -2 93 93 NW 9 15 30.18 1022 10 16.09344 0 0
7:35 am 07:35 Sunny 29 -1.6 27 -2.6 93 93 NW 9 15 30.24 1024 10 16.09344 0 0
7:55 am 07:55 Sunny 30 -1.3 28 -2.4 92 92 WNW 9 15 30.21 1023 10 16.09344 0 0
8:15 am 08:15 Sunny 31 -0.7 28 -2 91 91 WNW 9 15 30.21 1023 10 16.09344 0 0
8:35 am 08:35 Sunny 32 0.1 29 -1.4 90 90 WNW 10 17 30.21 1023 10 16.09344 0 0
8:55 am 08:55 Sunny 33 0.6 30 -1.1 89 89 NW 8 13 30.21 1023 10 16.09344 0 0
9:15 am 09:15 Sunny 35 1.6 30 -0.9 84 84 WNW 12 19 30.18 1022 10 16.09344 0 0
9:35 am 09:35 Sunny 37 2.8 31 -0.4 80 80 WNW 9 15 30.18 1022 10 16.09344 0 0
9:55 am 09:55 Sunny 38 3.6 32 -0.1 77 77 WNW 10 17 30.18 1022 10 16.09344 0 0
10:15 am 10:15 Sunny 40 4.4 32 0 73 73 WNW 8 13 30.12 1020 10 16.09344 0 0
10:35 am 10:35 Sunny 42 5.4 32 0.1 69 69 WNW 8 13 30.12 1020 10 16.09344 0 0
10:55 am 10:55 Sunny 43 6.2 32 0.2 66 66 W 10 17 30.12 1020 10 16.09344 0 0
11:15 am 11:15 Sunny 45 7.2 33 0.3 62 62 WNW 9 15 30.12 1020 10 16.09344 0 0
11:35 am 11:35 Sunny 47 8.3 33 0.4 58 58 WNW 8 13 30.09 1019 10 16.09344 0 0
11:55 am 11:55 Sunny 50 9.8 32 0.2 52 52 WNW 7 11 30.06 1018 10 16.09344 0 0
12:15 pm 12:15 Sunny 50 10.2 32 0 49 49 W 9 15 30.06 1018 10 16.09344 0 0
12:35 pm 12:35 Sunny 52 10.9 31 -0.5 46 46 WNW 9 15 30.03 1017 10 16.09344 0 0
12:55 pm 12:55 Sunny 53 11.6 31 -0.8 43 43 WNW 12 19 30.03 1017 10 16.09344 0 0
1:15 pm 13:15 Sunny 53 11.7 31 -0.8 42 42 WNW 10 17 30.03 1017 10 16.09344 0 0
1:35 pm 13:35 Sunny 54 12.4 29 -1.5 38 38 WNW 14 22 30 1016 10 16.09344 0 0
1:55 pm 13:55 Sunny 55 12.7 28 -2.3 35 35 WNW 14 22 30 1016 10 16.09344 0 0
2:15 pm 14:15 Sunny 56 13.4 28 -2.1 34 34 WNW 14 22 29.97 1015 10 16.09344 0 0
2:35 pm 14:35 Sunny 56 13.4 28 -2.4 34 34 WNW 15 24 29.94 1014 10 16.09344 0 0
2:55 pm 14:55 Sunny 56 13.6 28 -2.3 33 33 WNW 17 28 29.94 1014 10 16.09344 0 0
3:15 pm 15:15 Sunny 56 13.5 28 -2.4 33 33 WNW 13 20 29.94 1014 10 16.09344 0 0
3:35 pm 15:35 Sunny 56 13.1 27 -2.6 34 34 WNW 14 22 29.94 1014 10 16.09344 0 0
3:55 pm 15:55 Sunny 56 13.1 27 -2.8 33 33 WNW 13 20 29.94 1014 10 16.09344 0 0
4:15 pm 16:15 Sunny 53 11.9 28 -2.3 37 37 W 8 13 29.97 1015 10 16.09344 0 0
4:35 pm 16:35 Sunny 51 10.7 28 -2 41 41 W 6 9 29.97 1015 10 16.09344 0 0
4:55 pm 16:55 Sunny 50 10.1 28 -2 43 43 W 6 9 29.94 1014 10 16.09344 0 0
5:15 pm 17:15 Sunny 48 8.8 28 -2.1 47 47 WSW 6 9 29.97 1015 10 16.09344 0 0
5:35 pm 17:35 Clear 45 7.3 27 -2.7 49 49 SW 5 7 29.97 1015 10 16.09344 0 0
5:55 pm 17:55 Clear 45 7.3 27 -2.7 49 49 SW 5 7 29.97 1015 10 16.09344 0 0
6:15 pm 18:15 Clear 42 5.3 26 -3.1 55 55 SSW 5 7 30 1016 10 16.09344 0 0
6:35 pm 18:35 Clear 40 4.5 26 -3.2 58 58 SW 7 11 30 1016 10 16.09344 0 0
6:55 pm 18:55 Clear 39 4 26 -3.1 60 60 SW 6 9 29.97 1015 10 16.09344 0 0
7:15 pm 19:15 Clear 40 4.2 27 -2.8 61 61 SW 3 6 29.97 1015 10 16.09344 0 0
7:35 pm 19:35 Clear 40 4.6 27 -2.6 60 60 WSW 6 9 29.97 1015 10 16.09344 0 0
7:55 pm 19:55 Clear 40 4.2 27 -2.6 62 62 WSW 5 7 29.97 1015 10 16.09344 0 0
8:15 pm 20:15 Clear 40 4.4 28 -2.2 63 63 W 5 7 29.97 1015 10 16.09344 0 0
8:35 pm 20:35 Clear 40 4.5 28 -2.2 62 62 WSW 3 6 29.97 1015 10 16.09344 0 0
8:55 pm 20:55 Clear 40 4.2 28 -2.2 63 63 WSW 5 7 29.94 1014 10 16.09344 0 0
9:15 pm 21:15 Clear 39 4 28 -2.3 64 64 WSW 5 7 29.94 1014 10 16.09344 0 0
9:35 pm 21:35 Clear 39 4.1 28 -2.3 63 63 Calm 29.94 1014 10 16.09344 0 0
9:55 pm 21:55 Partly Cloudy 40 4.3 28 -2.5 62 62 Calm 29.94 1014 10 16.09344 0 0
10:15 pm 22:15 Cloudy 40 4.4 28 -2.5 61 61 SW 3 6 29.91 1013 10 16.09344 0 0
10:35 pm 22:35 Cloudy 39 4.1 29 -1.5 67 67 Calm 29.91 1013 10 16.09344 0 0
10:55 pm 22:55 Cloudy 42 5.3 29 -1.5 62 62 WSW 3 6 29.91 1013 10 16.09344 0 0
11:15 pm 23:15 Cloudy 43 6.2 29 -1.5 58 58 SW 3 6 29.85 1011 10 16.09344 0 0
11:35 pm 23:35 Cloudy 42 5.6 31 -0.8 64 64 Calm 29.85 1011 10 16.09344 0 0
11:55 pm 23:55 Cloudy 45 7 30 -1.2 56 56 Calm 29.85 1011 10 16.09344 0 0

Powered by AerisWeather